Location: Kumla
(59.1265°N, 15.1401°E)
Time: 22:57:26
(UTC+01:00)

Vanguard 1 - Pass Details

Date: 04 December 2023
Orbit: 653 x 3825 km, 34.3° (Epoch: 04 March)

Event Time Altitude Azimuth Distance (km) Brightness Sun altitude
Rises 22:13:03 0° 260° (W) 7,162 14.7 -49.4°
Reaches altitude 10° 22:18:30 10° 251° (WSW) 6,475 14.3 -49.8°
Enters shadow 22:30:02 27° 221° (SW) 5,554 13.6 -50.5°
